Regional Weather Roundup
Issued by NWS Midland/Odessa, TX

Skip options and go directly to product.
Home | Oldest Version | Previous Version | Current Version | All | Text Only | Save Text | Print | Product List | Glossary Off

Skip product version selection by date and time.   

228
ASUS44 KMAF 220902
RWRMAF
MIDLAND AREA WEATHER ROUNDUP
NATIONAL WEATHER SERVICE MIDLAND TX
300 AM CST SAT NOV 22 2014

...IN SOUTHWEST TEXAS AND SOUTHEAST NEW MEXICO...

CITY           SKY/WX    TMP DP  RH WIND       PRES   REMARKS
ALPINE         CLOUDY    43  39  86 CALM      30.03S
ANDREWS        CLOUDY    55  53  91 CALM      29.98S
ARTESIA        NOT AVBL
BIG SPRING     CLOUDY    61  56  83 CALM      30.00S
CARLSBAD       CLOUDY    49  43  80 NW5       29.98R
DRYDEN           N/A     59  58  96 E5        29.90F
FORT STOCKTON  CLOUDY    52  50  93 SE3       29.95S
GUAD PASS      NOT AVBL
HOBBS          CLOUDY    54  54 100 CALM      30.00S
MARFA          CLOUDY    43  34  70 N5        29.99F
MIDLAND AIRPK  CLOUDY    58  55  88 E3        29.97F
MIDLAND INTL   CLOUDY    57  54  89 N3        29.96F
ODESSA         CLOUDY    57  54  89 SE5       29.97S
PECOS          CLOUDY    44  42  92 S5        29.95S FOG
PRESIDIO       FAIR      57  47  70 N8        29.92R
SEMINOLE       CLOUDY    55  51  86 CALM      30.01R
SNYDER         CLOUDY    57  52  82 NE3       30.00F
WINK           CLOUDY    55  51  86 E7        29.93F
$$
...OTHER STATIONS IN TEXAS...

CITY           SKY/WX    TMP DP  RH WIND       PRES   REMARKS
ABILENE        CLOUDY    64  60  87 SE15      29.99F
AMARILLO       CLOUDY    41  36  82 S9        30.02F WCI  35
AUSTIN         CLOUDY    66  63  90 SE13      30.02F
BROWNSVILLE    CLOUDY    73  70  90 SE8       29.99F
CORPUS CHRISTI PTCLDY    71  67  87 SE15G23   29.99F
DALLAS FTW     LGT RAIN  58  58 100 SE13      30.07F FOG
DEL RIO        CLOUDY    67  65  93 E10       29.92S
EL PASO        CLOUDY    58  34  40 N8        30.00S
HOUSTON INT    MOCLDY    61  59  93 E6        30.11F
LUBBOCK        CLOUDY    46  43  89 E3        30.00S
SAN ANGELO     PTCLDY    61  59  93 SE5       29.96F
SAN ANTONIO    CLOUDY    68  65  90 SE17G23   30.02F
WACO           CLOUDY    64  61  90 SE15      30.06F
WICHITA FALLS  NOT AVBL
$$
...OTHER LOCATIONS IN NEW MEXICO...

CITY           SKY/WX    TMP DP  RH WIND       PRES   REMARKS
ALAMAGORDO     MOCLDY    43  27  52 MISG      30.02S
ALBUQUERQUE    PTCLDY    36  18  48 N7        30.08F WCI  30
CANNON AFB     CLOUDY    48  37  64 S1        30.02F
CLOVIS         CLOUDY    43  34  70 SW3       30.01F
HOLLOMAN AFB   MOCLDY    42  29  59 SE3       30.00S
ROSWELL        CLOUDY    46  32  58 NW3       30.00S
RUIDOSO        MOCLDY    39  19  45 W5        30.09F HAZE    WCI  36
SANTA FE       CLEAR     28  21  75 N10       30.08S WCI  19
TRUTH OR CONSE MOCLDY    44  23  43 NW7       30.04R
TUCUMCARI      MOCLDY    36  25  64 CALM      29.99S
$$

USA.gov is the U.S. government's official web portal to all federal, state and local government web resources and services.